Location: Caltech
(34.1382°N, 118.1253°W)
Time: 03:11:35
(UTC-08:00)

ASTRO E2 - Visible Passes

Search period start: 24 January 2017 00:00
Search period end: 03 February 2017 00:00
Orbit: 516 x 523 km, 31.4° (Epoch: 22 January)

Date Brightness Start Highest point End Pass type
(mag) Time Alt. Az. Time Alt. Az. Time Alt. Az.
24 Jan 3.8 05:37:57 16° SW 05:40:45 38° SSE 05:44:30 10° E visible
25 Jan 3.6 05:22:33 28° SW 05:24:08 42° SSE 05:27:57 10° E visible
26 Jan 3.3 05:07:03 43° SSW 05:07:32 45° S 05:11:23 10° E visible
27 Jan 3.6 04:51:29 45° SE 04:51:29 45° SE 04:54:48 10° E visible
28 Jan 4.4 04:35:51 32° ESE 04:35:51 32° ESE 04:38:13 10° E visible
28 Jan 3.2 06:10:50 10° W 06:14:44 53° S 06:18:39 10° ESE visible
29 Jan 5.2 04:20:12 21° ESE 04:20:12 21° ESE 04:21:38 10° E visible
29 Jan 3.2 05:55:09 16° W 05:58:08 50° S 06:02:01 10° ESE visible
30 Jan 5.8 04:04:31 13° E 04:04:31 13° E 04:05:02 10° E visible
30 Jan 3.3 05:39:29 24° WSW 05:41:31 47° S 05:45:23 10° ESE visible
31 Jan 3.3 05:23:48 34° SW 05:24:54 43° SSW 05:28:43 10° ESE visible
01 Feb 3.4 05:08:08 39° SSW 05:08:17 40° SSW 05:12:02 10° SE visible
02 Feb 4.0 04:52:30 32° SSE 04:52:30 32° SSE 04:55:20 10° SE visible
